TimeCST,TemperatureF,Dew PointF,Humidity,Sea Level PressureIn,VisibilityMPH,Wind Direction,Wind SpeedMPH,Gust SpeedMPH,PrecipitationIn,Events,Conditions,WindDirDegrees,DateUTC
12:15 AM,44.6,44.6,100,30.18,7.0,NNW,9.2,-,N/A,Rain,Rain,340,2013-01-03 06:15:00
12:35 AM,44.6,42.8,93,30.19,7.0,NNW,8.1,-,0.01,Rain,Rain,340,2013-01-03 06:35:00
12:55 AM,44.6,42.8,93,30.20,7.0,North,4.6,-,0.01,Rain,Rain,350,2013-01-03 06:55:00
1:15 AM,44.6,42.8,93,30.21,7.0,North,4.6,-,0.01,Rain,Light Rain,350,2013-01-03 07:15:00
1:35 AM,44.6,42.8,93,30.20,7.0,North,3.5,-,0.02,Rain,Rain,350,2013-01-03 07:35:00
1:55 AM,44.6,42.8,93,30.21,7.0,NNW,5.8,-,0.03,Rain,Light Rain,340,2013-01-03 07:55:00
2:15 AM,44.6,42.8,93,30.20,10.0,North,4.6,-,N/A,Rain,Light Rain,350,2013-01-03 08:15:00
2:35 AM,44.6,42.8,93,30.19,10.0,North,6.9,-,0.01,Rain,Rain,360,2013-01-03 08:35:00
2:55 AM,44.6,42.8,93,30.20,7.0,North,3.5,-,0.01,Rain,Rain,360,2013-01-03 08:55:00
3:15 AM,44.6,42.8,93,30.19,7.0,NNE,6.9,-,0.01,Rain,Light Rain,20,2013-01-03 09:15:00
3:35 AM,44.6,42.8,93,30.20,7.0,North,4.6,-,0.02,Rain,Light Rain,360,2013-01-03 09:35:00
3:55 AM,44.6,42.8,93,30.20,10.0,North,6.9,-,0.02,Rain,Light Rain,350,2013-01-03 09:55:00
4:15 AM,44.6,42.8,93,30.21,10.0,North,5.8,-,0.01,Rain,Light Rain,350,2013-01-03 10:15:00
4:35 AM,44.6,42.8,93,30.21,10.0,North,8.1,-,0.01,Rain,Rain,360,2013-01-03 10:35:00
4:55 AM,44.6,42.8,93,30.21,10.0,North,6.9,-,0.01,Rain,Light Rain,360,2013-01-03 10:55:00
5:15 AM,44.6,42.8,93,30.23,10.0,North,4.6,-,0.01,Rain,Light Rain,360,2013-01-03 11:15:00
5:35 AM,42.8,42.8,100,30.23,10.0,NNW,4.6,-,0.02,Rain,Light Rain,340,2013-01-03 11:35:00
5:55 AM,42.8,42.8,100,30.22,10.0,North,4.6,-,0.02,Rain,Light Rain,360,2013-01-03 11:55:00
6:15 AM,42.8,42.8,100,30.23,10.0,North,5.8,-,N/A,,Drizzle,360,2013-01-03 12:15:00
6:55 AM,42.8,42.8,100,30.23,10.0,North,8.1,-,N/A,Rain,Light Rain,350,2013-01-03 12:55:00
7:15 AM,42.8,42.8,100,30.24,10.0,North,6.9,-,N/A,Rain,Light Rain,350,2013-01-03 13:15:00
7:35 AM,42.8,42.8,100,30.24,10.0,NNW,10.4,-,N/A,Rain,Light Rain,340,2013-01-03 13:35:00
7:55 AM,42.8,41.0,93,30.26,10.0,North,8.1,-,N/A,Rain,Light Rain,350,2013-01-03 13:55:00
8:15 AM,42.8,41.0,93,30.27,10.0,NNW,6.9,-,N/A,Rain,Rain,340,2013-01-03 14:15:00
8:35 AM,42.8,41.0,93,30.26,10.0,North,6.9,-,N/A,Rain,Light Rain,350,2013-01-03 14:35:00
8:55 AM,42.8,41.0,93,30.27,10.0,North,9.2,-,N/A,Rain,Light Rain,360,2013-01-03 14:55:00
9:15 AM,42.8,41.0,93,30.28,7.0,North,9.2,-,N/A,,Mostly Cloudy,350,2013-01-03 15:15:00
9:35 AM,42.8,41.0,93,30.29,5.0,North,9.2,16.1,N/A,,Overcast,350,2013-01-03 15:35:00
9:55 AM,44.6,41.0,87,30.28,5.0,North,12.7,-,N/A,,Overcast,10,2013-01-03 15:55:00
10:15 AM,44.6,41.0,87,30.29,5.0,North,11.5,-,N/A,,Overcast,350,2013-01-03 16:15:00
10:35 AM,44.6,41.0,87,30.29,5.0,North,12.7,16.1,N/A,,Overcast,360,2013-01-03 16:35:00
10:55 AM,44.6,41.0,87,30.28,7.0,North,8.1,-,N/A,,Overcast,350,2013-01-03 16:55:00
11:15 AM,44.6,39.2,81,30.27,5.0,North,8.1,17.3,N/A,,Haze,360,2013-01-03 17:15:00
11:35 AM,44.6,39.2,81,30.27,5.0,North,6.9,16.1,N/A,,Haze,350,2013-01-03 17:35:00
11:55 AM,44.6,39.2,81,30.26,7.0,North,8.1,-,N/A,,Overcast,360,2013-01-03 17:55:00
12:15 PM,44.6,39.2,81,30.25,7.0,North,8.1,-,N/A,,Overcast,350,2013-01-03 18:15:00
12:35 PM,44.6,39.2,81,30.24,4.0,NNW,10.4,-,N/A,,Haze,340,2013-01-03 18:35:00
12:55 PM,44.6,37.4,76,30.24,5.0,North,6.9,-,N/A,,Haze,350,2013-01-03 18:55:00
1:15 PM,44.6,39.2,81,30.23,4.0,North,9.2,-,N/A,,Haze,10,2013-01-03 19:15:00
1:35 PM,44.6,39.2,81,30.24,7.0,North,9.2,-,N/A,,Overcast,350,2013-01-03 19:35:00
1:55 PM,44.6,37.4,76,30.23,7.0,North,8.1,-,N/A,,Overcast,350,2013-01-03 19:55:00
2:15 PM,46.4,37.4,71,30.24,5.0,North,10.4,-,N/A,,Haze,360,2013-01-03 20:15:00
2:35 PM,46.4,37.4,71,30.25,5.0,NNW,8.1,-,N/A,,Haze,330,2013-01-03 20:35:00
3:15 PM,46.4,35.6,66,30.25,5.0,North,8.1,-,N/A,,Haze,360,2013-01-03 21:15:00
3:35 PM,46.4,35.6,66,30.26,7.0,North,6.9,-,N/A,,Clear,360,2013-01-03 21:35:00
4:15 PM,46.4,35.6,66,30.26,5.0,North,8.1,-,N/A,,Haze,360,2013-01-03 22:15:00
4:35 PM,46.4,35.6,66,30.27,7.0,North,9.2,-,N/A,,Clear,360,2013-01-03 22:35:00
4:55 PM,46.4,35.6,66,30.28,5.0,North,6.9,-,N/A,,Haze,360,2013-01-03 22:55:00
5:15 PM,44.6,35.6,71,30.29,7.0,North,5.8,-,N/A,,Clear,350,2013-01-03 23:15:00
5:35 PM,44.6,35.6,71,30.29,7.0,NNW,4.6,-,N/A,,Clear,340,2013-01-03 23:35:00
6:15 PM,42.8,35.6,76,30.31,7.0,NNW,5.8,-,N/A,,Clear,340,2013-01-04 00:15:00
6:35 PM,42.8,35.6,76,30.31,7.0,North,4.6,-,N/A,,Clear,350,2013-01-04 00:35:00
6:55 PM,42.8,35.6,76,30.32,7.0,NNW,4.6,-,N/A,,Clear,340,2013-01-04 00:55:00
7:15 PM,41.0,33.8,76,30.33,7.0,North,5.8,-,N/A,,Clear,350,2013-01-04 01:15:00
7:35 PM,41.0,33.8,76,30.34,7.0,North,5.8,-,N/A,,Clear,350,2013-01-04 01:35:00
7:55 PM,41.0,33.8,76,30.34,7.0,NNW,5.8,-,N/A,,Clear,340,2013-01-04 01:55:00
8:15 PM,41.0,33.8,76,30.34,7.0,North,4.6,-,N/A,,Clear,350,2013-01-04 02:15:00
8:35 PM,41.0,32.0,70,30.34,7.0,North,3.5,-,N/A,,Clear,10,2013-01-04 02:35:00
9:15 PM,37.4,32.0,81,30.35,7.0,Calm,Calm,-,N/A,,Clear,0,2013-01-04 03:15:00
9:35 PM,37.4,32.0,81,30.36,7.0,Calm,Calm,-,N/A,,Clear,0,2013-01-04 03:35:00
9:55 PM,37.4,32.0,81,30.36,7.0,Calm,Calm,-,N/A,,Clear,0,2013-01-04 03:55:00
10:15 PM,33.8,32.0,93,30.35,7.0,Calm,Calm,-,N/A,,Clear,0,2013-01-04 04:15:00
10:35 PM,35.6,32.0,87,30.35,7.0,North,3.5,-,N/A,,Clear,350,2013-01-04 04:35:00
10:55 PM,33.8,32.0,93,30.36,10.0,Calm,Calm,-,N/A,,Clear,0,2013-01-04 04:55:00
11:15 PM,35.6,32.0,87,30.35,7.0,North,3.5,-,N/A,,Clear,350,2013-01-04 05:15:00
11:35 PM,37.4,32.0,81,30.35,10.0,North,4.6,-,N/A,,Clear,360,2013-01-04 05:35:00
11:55 PM,37.4,32.0,81,30.35,7.0,North,5.8,-,N/A,,Clear,350,2013-01-04 05:55:00